Location: Eaglesham
(55.7833°N, 117.9000°W)
Time: 17:56:13
(UTC+00:00)

ISS - Pass Details

Date: 04 December 2021
Orbit: 413 x 422 km, 51.6° (Epoch: 23 January)

Event Time Altitude Azimuth Distance (km) Brightness Sun altitude
Rises 01:20:48 0° 272° (W) 2,386 1.5 -15.4°
Reaches altitude 10° 01:23:05 10° 260° (W) 1,517 0.4 -15.7°
Maximum altitude 01:26:03 28° 200° (SSW) 828 -1.9 -16.1°
Enters shadow 01:28:33 13° 143° (SE) 1,348 -1.4 -16.4°
